QPF
0.03 0.03 0.03 0.03 0.03 0.04 0.04 0.04 0.03 0.01 0.02 0.02 0.02 0.04 0.04 0.02 0.01 0.01 0.01 0.01 0.00 0.00 0.01 0.03 0.05 0.07 0.08 0.09 0.06 0.03 0.03 0.03 0.04 0.05 0.06 0.05 0.04 0.03 0.03 0.03 0.03 0.03 0.03
0.03 0.03 0.03 0.03 0.04 0.03 0.04 0.04 0.02 0.02 0.02 0.03 0.02 0.02 0.05 0.06 0.03 0.02 0.01 0.01 0.01 0.00 0.01 0.02 0.04 0.06 0.08 0.10 0.10 0.06 0.04 0.03 0.03 0.05 0.06 0.06 0.07 0.06 0.05 0.04 0.04 0.04 0.03
0.03 0.03 0.03 0.03 0.02 0.03 0.05 0.05 0.03 0.03 0.02 0.03 0.03 0.02 0.03 0.06 0.06 0.04 0.02 0.01 0.01 0.00 0.00 0.01 0.03 0.05 0.07 0.09 0.10 0.10 0.07 0.04 0.03 0.04 0.06 0.06 0.06 0.07 0.08 0.07 0.05 0.05 0.04
0.04 0.05 0.04 0.03 0.02 0.03 0.04 0.07 0.05 0.04 0.03 0.03 0.05 0.04 0.03 0.03 0.03 0.03 0.02 0.02 0.01 0.01 0.00 0.01 0.01 0.03 0.05 0.08 0.09 0.09 0.09 0.06 0.05 0.05 0.05 0.05 0.05 0.05 0.06 0.07 0.07 0.07 0.07
0.05 0.06 0.06 0.05 0.03 0.03 0.03 0.06 0.07 0.04 0.03 0.04 0.06 0.06 0.05 0.04 0.02 0.02 0.02 0.01 0.01 0.01 0.00 0.00 0.00 0.01 0.03 0.07 0.10 0.08 0.06 0.07 0.07 0.07 0.06 0.05 0.04 0.04 0.04 0.05 0.05 0.06 0.07
0.05 0.06 0.07 0.06 0.04 0.03 0.03 0.05 0.10 0.07 0.04 0.05 0.06 0.07 0.06 0.04 0.03 0.02 0.01 0.01 0.00 0.01 0.00 0.00 0.00 0.01 0.02 0.04 0.09 0.12 0.09 0.05 0.06 0.06 0.06 0.07 0.06 0.05 0.04 0.04 0.04 0.04 0.04
0.06 0.08 0.07 0.06 0.06 0.03 0.02 0.03 0.11 0.10 0.06 0.05 0.06 0.07 0.07 0.06 0.04 0.03 0.02 0.01 0.00 0.00 0.00 0.00 0.01 0.01 0.01 0.03 0.05 0.11 0.15 0.08 0.05 0.05 0.05 0.06 0.07 0.06 0.05 0.06 0.05 0.05 0.04
0.06 0.07 0.05 0.05 0.05 0.04 0.03 0.03 0.07 0.11 0.08 0.05 0.05 0.06 0.07 0.07 0.06 0.04 0.02 0.01 0.00 0.00 0.00 0.01 0.01 0.01 0.01 0.02 0.04 0.06 0.12 0.14 0.06 0.04 0.05 0.06 0.06 0.06 0.06 0.06 0.06 0.05 0.05
0.05 0.05 0.04 0.03 0.04 0.05 0.05 0.05 0.05 0.08 0.11 0.08 0.05 0.05 0.05 0.05 0.05 0.04 0.02 0.01 0.01 0.00 0.01 0.01 0.01 0.01 0.01 0.01 0.03 0.05 0.07 0.12 0.12 0.07 0.05 0.05 0.05 0.06 0.08 0.07 0.06 0.06 0.06
0.04 0.04 0.03 0.03 0.03 0.04 0.06 0.07 0.06 0.06 0.08 0.09 0.07 0.05 0.03 0.03 0.04 0.04 0.02 0.01 0.01 0.00 0.01 0.01 0.02 0.02 0.02 0.02 0.02 0.03 0.05 0.06 0.09 0.08 0.06 0.06 0.06 0.07 0.08 0.09 0.08 0.06 0.06
0.03 0.03 0.03 0.03 0.03 0.04 0.06 0.07 0.06 0.07 0.07 0.07 0.07 0.05 0.04 0.02 0.02 0.03 0.03 0.02 0.01 0.00 0.00 0.01 0.01 0.02 0.03 0.03 0.02 0.02 0.04 0.05 0.07 0.07 0.06 0.07 0.08 0.07 0.08 0.09 0.09 0.07 0.06
0.03 0.02 0.02 0.03 0.03 0.04 0.04 0.06 0.06 0.07 0.07 0.06 0.06 0.06 0.05 0.04 0.02 0.02 0.03 0.02 0.01 0.01 0.01 0.01 0.01 0.01 0.01 0.01 0.02 0.02 0.03 0.04 0.05 0.05 0.05 0.06 0.08 0.10 0.09 0.09 0.10 0.09 0.08
0.02 0.01 0.02 0.03 0.04 0.04 0.04 0.04 0.05 0.06 0.07 0.07 0.06 0.05 0.04 0.03 0.03 0.03 0.04 0.03 0.01 0.01 0.01 0.01 0.01 0.01 0.01 0.01 0.01 0.02 0.02 0.03 0.04 0.04 0.04 0.05 0.07 0.11 0.12 0.11 0.09 0.09 0.08
0.01 0.01 0.01 0.02 0.04 0.04 0.04 0.04 0.04 0.04 0.06 0.07 0.05 0.04 0.04 0.04 0.04 0.04 0.04 0.04 0.03 0.02 0.02 0.02 0.02 0.02 0.02 0.01 0.01 0.02 0.01 0.02 0.04 0.04 0.04 0.05 0.06 0.08 0.10 0.12 0.11 0.07 0.06
0.01 0.01 0.02 0.02 0.03 0.03 0.03 0.03 0.03 0.03 0.03 0.04 0.04 0.03 0.04 0.04 0.04 0.05 0.05 0.05 0.05 0.05 0.04 0.03 0.02 0.03 0.02 0.02 0.02 0.02 0.01 0.02 0.04 0.05 0.05 0.05 0.05 0.06 0.07 0.10 0.12 0.08 0.05
0.01 0.02 0.02 0.02 0.02 0.02 0.02 0.02 0.02 0.03 0.02 0.03 0.03 0.03 0.03 0.03 0.03 0.03 0.03 0.04 0.04 0.05 0.06 0.04 0.04 0.03 0.03 0.03 0.03 0.02 0.02 0.03 0.04 0.05 0.05 0.05 0.05 0.05 0.05 0.08 0.11 0.09 0.05
0.02 0.02 0.02 0.01 0.01 0.01 0.02 0.02 0.02 0.02 0.02 0.03 0.03 0.03 0.03 0.02 0.01 0.01 0.01 0.02 0.03 0.04 0.05 0.05 0.05 0.04 0.03 0.03 0.03 0.03 0.02 0.03 0.04 0.04 0.05 0.05 0.04 0.04 0.04 0.06 0.08 0.09 0.06
0.02 0.02 0.01 0.01 0.01 0.02 0.02 0.02 0.02 0.02 0.02 0.03 0.03 0.03 0.02 0.02 0.01 0.01 0.01 0.02 0.02 0.03 0.05 0.06 0.06 0.05 0.03 0.02 0.02 0.02 0.03 0.03 0.03 0.03 0.04 0.04 0.04 0.03 0.03 0.05 0.06 0.08 0.07
0.02 0.01 0.01 0.01 0.02 0.02 0.02 0.03 0.02 0.02 0.02 0.02 0.02 0.02 0.02 0.01 0.01 0.02 0.02 0.02 0.03 0.03 0.05 0.06 0.06 0.05 0.03 0.02 0.03 0.04 0.04 0.03 0.03 0.03 0.03 0.03 0.04 0.04 0.03 0.05 0.06 0.06 0.07
0.02 0.01 0.01 0.01 0.02 0.03 0.03 0.03 0.03 0.02 0.02 0.02 0.03 0.03 0.02 0.02 0.02 0.02 0.02 0.03 0.04 0.04 0.06 0.06 0.06 0.06 0.04 0.03 0.04 0.05 0.05 0.04 0.04 0.03 0.03 0.03 0.03 0.04 0.03 0.04 0.06 0.06 0.06
0.02 0.02 0.02 0.02 0.02 0.03 0.03 0.03 0.03 0.02 0.02 0.03 0.02 0.03 0.03 0.03 0.03 0.03 0.03 0.03 0.04 0.05 0.07 0.06 0.05 0.06 0.05 0.05 0.05 0.04 0.05 0.04 0.03 0.02 0.02 0.02 0.02 0.02 0.03 0.03 0.04 0.05 0.06
0.04 0.03 0.03 0.03 0.03 0.03 0.04 0.04 0.04 0.03 0.03 0.02 0.02 0.02 0.02 0.03 0.03 0.03 0.04 0.05 0.06 0.06 0.07 0.06 0.05 0.05 0.04 0.04 0.03 0.03 0.03 0.03 0.03 0.02 0.02 0.02 0.02 0.02 0.02 0.02 0.03 0.05 0.05
0.06 0.06 0.06 0.05 0.04 0.04 0.04 0.04 0.04 0.04 0.04 0.03 0.02 0.02 0.02 0.02 0.02 0.03 0.04 0.05 0.06 0.06 0.07 0.07 0.06 0.05 0.03 0.03 0.03 0.02 0.02 0.02 0.02 0.02 0.02 0.03 0.03 0.02 0.02 0.03 0.04 0.04 0.04
0.05 0.05 0.05 0.05 0.04 0.04 0.05 0.05 0.05 0.04 0.04 0.03 0.02 0.02 0.02 0.03 0.03 0.03 0.04 0.06 0.06 0.05 0.06 0.06 0.06 0.06 0.04 0.03 0.03 0.02 0.02 0.02 0.02 0.02 0.03 0.04 0.04 0.03 0.03 0.03 0.04 0.04 0.05
0.04 0.04 0.04 0.04 0.04 0.04 0.06 0.07 0.05 0.04 0.03 0.02 0.02 0.02 0.02 0.03 0.05 0.05 0.04 0.06 0.06 0.06 0.06 0.05 0.06 0.06 0.06 0.04 0.03 0.03 0.03 0.03 0.02 0.03 0.03 0.04 0.04 0.04 0.04 0.04 0.04 0.04 0.04
0.03 0.03 0.04 0.04 0.04 0.04 0.05 0.05 0.05 0.04 0.03 0.02 0.02 0.02 0.02 0.02 0.04 0.05 0.05 0.05 0.06 0.07 0.06 0.04 0.04 0.04 0.04 0.03 0.04 0.03 0.04 0.03 0.03 0.02 0.03 0.03 0.05 0.05 0.05 0.04 0.04 0.03 0.03
MSLP
1014.13 1013.30 1012.36 1011.39 1010.49 1009.78 1009.37 1009.30 1009.58 1010.19 1011.01 1011.94 1012.84 1013.65 1014.29 1014.78 1015.15 1015.47 1015.80 1016.20 1016.69 1017.25 1017.86 1018.44 1018.96 1019.36 1019.65 1019.82 1019.92 1019.98 1020.04 1020.10 1020.17 1020.24 1020.27 1020.25 1020.17 1020.01 1019.79 1019.54 1019.26 1018.97 1018.67
1014.38 1013.62 1012.71 1011.74 1010.80 1010.03 1009.52 1009.35 1009.55 1010.09 1010.88 1011.80 1012.73 1013.58 1014.28 1014.83 1015.25 1015.59 1015.94 1016.33 1016.80 1017.34 1017.91 1018.48 1018.99 1019.41 1019.71 1019.92 1020.05 1020.14 1020.22 1020.30 1020.38 1020.45 1020.48 1020.45 1020.36 1020.19 1019.96 1019.69 1019.39 1019.09 1018.77
1014.51 1013.86 1013.03 1012.09 1011.14 1010.32 1009.73 1009.47 1009.58 1010.03 1010.77 1011.66 1012.60 1013.48 1014.24 1014.84 1015.31 1015.70 1016.06 1016.45 1016.90 1017.42 1017.97 1018.52 1019.02 1019.45 1019.78 1020.02 1020.18 1020.31 1020.41 1020.51 1020.60 1020.66 1020.69 1020.65 1020.54 1020.35 1020.10 1019.81 1019.49 1019.16 1018.83
1014.54 1014.01 1013.27 1012.39 1011.46 1010.61 1009.96 1009.61 1009.62 1009.98 1010.64 1011.49 1012.42 1013.33 1014.13 1014.80 1015.34 1015.78 1016.18 1016.58 1017.03 1017.53 1018.06 1018.59 1019.09 1019.52 1019.87 1020.14 1020.34 1020.49 1020.62 1020.73 1020.82 1020.88 1020.90 1020.85 1020.72 1020.51 1020.24 1019.92 1019.58 1019.23 1018.87
1014.45 1014.04 1013.41 1012.60 1011.71 1010.85 1010.15 1009.72 1009.63 1009.90 1010.47 1011.27 1012.19 1013.12 1013.98 1014.72 1015.33 1015.84 1016.29 1016.74 1017.20 1017.70 1018.23 1018.75 1019.25 1019.68 1020.03 1020.32 1020.53 1020.70 1020.84 1020.95 1021.05 1021.11 1021.11 1021.05 1020.91 1020.70 1020.41 1020.07 1019.71 1019.33 1018.95
1014.25 1013.95 1013.41 1012.68 1011.83 1010.98 1010.25 1009.76 1009.59 1009.77 1010.27 1011.02 1011.92 1012.87 1013.78 1014.60 1015.30 1015.90 1016.43 1016.93 1017.44 1017.96 1018.49 1019.02 1019.51 1019.94 1020.29 1020.57 1020.78 1020.95 1021.08 1021.19 1021.28 1021.34 1021.34 1021.28 1021.15 1020.93 1020.64 1020.29 1019.91 1019.51 1019.10
1013.94 1013.71 1013.25 1012.59 1011.80 1010.97 1010.24 1009.72 1009.50 1009.61 1010.05 1010.76 1011.65 1012.61 1013.57 1014.46 1015.26 1015.96 1016.58 1017.17 1017.73 1018.30 1018.86 1019.39 1019.88 1020.30 1020.65 1020.91 1021.10 1021.25 1021.36 1021.45 1021.53 1021.58 1021.59 1021.54 1021.42 1021.22 1020.94 1020.60 1020.21 1019.79 1019.34
1013.51 1013.32 1012.93 1012.34 1011.61 1010.83 1010.13 1009.61 1009.36 1009.44 1009.84 1010.52 1011.39 1012.37 1013.37 1014.33 1015.21 1016.01 1016.74 1017.41 1018.06 1018.69 1019.29 1019.85 1020.35 1020.77 1021.09 1021.33 1021.49 1021.60 1021.67 1021.74 1021.79 1021.84 1021.86 1021.83 1021.73 1021.56 1021.30 1020.97 1020.58 1020.14 1019.67
1012.98 1012.81 1012.46 1011.94 1011.28 1010.58 1009.93 1009.45 1009.21 1009.28 1009.67 1010.32 1011.18 1012.16 1013.19 1014.20 1015.16 1016.04 1016.86 1017.63 1018.37 1019.07 1019.74 1020.34 1020.87 1021.29 1021.60 1021.81 1021.94 1022.00 1022.04 1022.06 1022.09 1022.12 1022.15 1022.14 1022.07 1021.93 1021.71 1021.40 1021.01 1020.55 1020.04
1012.38 1012.21 1011.89 1011.43 1010.86 1010.24 1009.68 1009.26 1009.08 1009.17 1009.55 1010.20 1011.04 1012.01 1013.04 1014.07 1015.07 1016.02 1016.92 1017.78 1018.61 1019.40 1020.14 1020.80 1021.37 1021.82 1022.14 1022.34 1022.43 1022.46 1022.45 1022.43 1022.43 1022.44 1022.47 1022.47 1022.43 1022.32 1022.13 1021.83 1021.44 1020.97 1020.43
1011.74 1011.57 1011.28 1010.87 1010.38 1009.87 1009.41 1009.08 1008.97 1009.10 1009.50 1010.13 1010.95 1011.90 1012.91 1013.93 1014.94 1015.93 1016.88 1017.81 1018.72 1019.60 1020.43 1021.18 1021.81 1022.31 1022.66 1022.87 1022.95 1022.95 1022.91 1022.85 1022.82 1022.81 1022.82 1022.83 1022.80 1022.71 1022.53 1022.25 1021.85 1021.36 1020.79
1011.11 1010.93 1010.67 1010.31 1009.91 1009.49 1009.14 1008.91 1008.88 1009.06 1009.48 1010.11 1010.90 1011.80 1012.76 1013.76 1014.75 1015.74 1016.72 1017.71 1018.69 1019.65 1020.58 1021.42 1022.15 1022.72 1023.12 1023.37 1023.47 1023.47 1023.40 1023.32 1023.25 1023.22 1023.21 1023.20 1023.17 1023.09 1022.91 1022.63 1022.22 1021.72 1021.11
1010.53 1010.35 1010.10 1009.79 1009.46 1009.13 1008.88 1008.75 1008.79 1009.03 1009.47 1010.09 1010.84 1011.69 1012.60 1013.54 1014.50 1015.47 1016.46 1017.48 1018.51 1019.56 1020.57 1021.52 1022.34 1023.01 1023.50 1023.81 1023.96 1023.98 1023.92 1023.82 1023.73 1023.67 1023.63 1023.61 1023.56 1023.46 1023.28 1022.98 1022.57 1022.04 1021.42
1010.03 1009.84 1009.60 1009.33 1009.04 1008.79 1008.62 1008.57 1008.68 1008.97 1009.43 1010.04 1010.77 1011.57 1012.42 1013.30 1014.21 1015.15 1016.13 1017.16 1018.23 1019.34 1020.44 1021.48 1022.41 1023.18 1023.77 1024.17 1024.38 1024.45 1024.42 1024.34 1024.24 1024.16 1024.10 1024.04 1023.97 1023.85 1023.65 1023.34 1022.91 1022.37 1021.73
1009.60 1009.42 1009.18 1008.92 1008.66 1008.46 1008.35 1008.36 1008.53 1008.86 1009.35 1009.96 1010.67 1011.43 1012.24 1013.07 1013.92 1014.82 1015.78 1016.81 1017.90 1019.05 1020.20 1021.32 1022.34 1023.22 1023.91 1024.41 1024.71 1024.85 1024.88 1024.83 1024.74 1024.66 1024.58 1024.51 1024.41 1024.27 1024.04 1023.72 1023.28 1022.73 1022.08
1009.24 1009.05 1008.81 1008.55 1008.31 1008.13 1008.05 1008.11 1008.33 1008.70 1009.22 1009.84 1010.54 1011.30 1012.07 1012.87 1013.69 1014.55 1015.48 1016.49 1017.57 1018.73 1019.91 1021.08 1022.17 1023.12 1023.91 1024.51 1024.91 1025.14 1025.24 1025.24 1025.20 1025.14 1025.06 1024.98 1024.87 1024.70 1024.47 1024.13 1023.69 1023.14 1022.50
1008.89 1008.70 1008.45 1008.19 1007.95 1007.78 1007.73 1007.83 1008.08 1008.50 1009.05 1009.70 1010.43 1011.19 1011.96 1012.75 1013.54 1014.38 1015.27 1016.25 1017.30 1018.43 1019.61 1020.78 1021.90 1022.91 1023.76 1024.45 1024.94 1025.27 1025.46 1025.55 1025.57 1025.55 1025.50 1025.43 1025.32 1025.16 1024.92 1024.59 1024.15 1023.62 1022.99
1008.51 1008.32 1008.07 1007.81 1007.57 1007.42 1007.39 1007.52 1007.81 1008.27 1008.87 1009.58 1010.34 1011.14 1011.94 1012.73 1013.52 1014.33 1015.19 1016.11 1017.11 1018.19 1019.32 1020.46 1021.57 1022.59 1023.49 1024.24 1024.82 1025.25 1025.54 1025.72 1025.82 1025.86 1025.86 1025.83 1025.74 1025.60 1025.37 1025.06 1024.64 1024.13 1023.53
1008.03 1007.87 1007.63 1007.38 1007.16 1007.03 1007.04 1007.21 1007.55 1008.07 1008.73 1009.49 1010.31 1011.16 1011.99 1012.81 1013.60 1014.40 1015.22 1016.08 1017.02 1018.01 1019.07 1020.14 1021.21 1022.22 1023.13 1023.92 1024.57 1025.08 1025.47 1025.75 1025.94 1026.06 1026.13 1026.15 1026.10 1025.99 1025.80 1025.51 1025.12 1024.65 1024.09
1007.45 1007.31 1007.11 1006.90 1006.72 1006.64 1006.70 1006.92 1007.33 1007.91 1008.64 1009.47 1010.35 1011.25 1012.13 1012.98 1013.78 1014.56 1015.34 1016.15 1017.00 1017.91 1018.87 1019.86 1020.86 1021.82 1022.72 1023.53 1024.23 1024.82 1025.29 1025.67 1025.95 1026.16 1026.31 1026.38 1026.39 1026.31 1026.16 1025.91 1025.56 1025.13 1024.61
1006.75 1006.66 1006.52 1006.37 1006.27 1006.26 1006.39 1006.70 1007.18 1007.83 1008.63 1009.52 1010.47 1011.42 1012.34 1013.21 1014.03 1014.79 1015.54 1016.30 1017.07 1017.89 1018.76 1019.66 1020.58 1021.49 1022.36 1023.17 1023.90 1024.53 1025.08 1025.53 1025.90 1026.19 1026.40 1026.53 1026.59 1026.56 1026.44 1026.23 1025.94 1025.55 1025.08
1005.96 1005.95 1005.89 1005.83 1005.83 1005.92 1006.15 1006.55 1007.11 1007.84 1008.70 1009.65 1010.64 1011.63 1012.58 1013.48 1014.30 1015.07 1015.79 1016.50 1017.22 1017.97 1018.76 1019.58 1020.42 1021.27 1022.11 1022.90 1023.64 1024.31 1024.90 1025.41 1025.84 1026.18 1026.45 1026.63 1026.72 1026.73 1026.65 1026.48 1026.23 1025.89 1025.48
1005.15 1005.22 1005.26 1005.32 1005.43 1005.65 1006.00 1006.49 1007.15 1007.94 1008.86 1009.85 1010.87 1011.89 1012.86 1013.77 1014.60 1015.37 1016.09 1016.78 1017.47 1018.17 1018.90 1019.66 1020.45 1021.25 1022.05 1022.82 1023.55 1024.23 1024.84 1025.37 1025.83 1026.20 1026.50 1026.70 1026.82 1026.86 1026.80 1026.67 1026.45 1026.17 1025.82
1004.39 1004.54 1004.69 1004.88 1005.13 1005.48 1005.95 1006.55 1007.28 1008.14 1009.10 1010.11 1011.15 1012.18 1013.16 1014.08 1014.93 1015.71 1016.44 1017.13 1017.82 1018.51 1019.22 1019.95 1020.71 1021.47 1022.23 1022.97 1023.68 1024.33 1024.93 1025.46 1025.92 1026.29 1026.59 1026.79 1026.92 1026.96 1026.93 1026.82 1026.64 1026.40 1026.10
1003.75 1003.98 1004.25 1004.56 1004.95 1005.42 1006.01 1006.70 1007.51 1008.42 1009.41 1010.44 1011.48 1012.51 1013.50 1014.43 1015.30 1016.10 1016.86 1017.59 1018.30 1019.01 1019.72 1020.45 1021.19 1021.93 1022.65 1023.36 1024.02 1024.64 1025.20 1025.70 1026.12 1026.47 1026.74 1026.93 1027.04 1027.08 1027.06 1026.96 1026.81 1026.62 1026.37
1003.28 1003.60 1003.96 1004.39 1004.90 1005.49 1006.17 1006.95 1007.83 1008.77 1009.78 1010.82 1011.86 1012.89 1013.88 1014.82 1015.72 1016.56 1017.36 1018.14 1018.89 1019.64 1020.39 1021.13 1021.86 1022.58 1023.27 1023.93 1024.54 1025.10 1025.61 1026.05 1026.42 1026.72 1026.95 1027.12 1027.21 1027.24 1027.22 1027.14 1027.02 1026.86 1026.66
Thickness
5618 5619 5620 5620 5622 5622 5624 5625 5627 5629 5631 5633 5635 5636 5638 5640 5641 5642 5643 5641 5641 5642 5643 5644 5644 5644 5645 5644 5644 5644 5643 5643 5642 5641 5641 5640 5640 5640 5639 5639 5638 5637 5636
5609 5610 5611 5612 5613 5614 5615 5617 5619 5621 5623 5625 5627 5629 5630 5632 5632 5633 5633 5633 5632 5633 5633 5634 5635 5636 5636 5636 5636 5636 5636 5635 5635 5634 5633 5632 5632 5632 5631 5631 5630 5629 5629
5600 5601 5602 5604 5605 5605 5607 5609 5611 5613 5614 5616 5619 5620 5621 5623 5623 5624 5624 5625 5625 5624 5624 5624 5625 5627 5627 5628 5628 5628 5628 5627 5627 5626 5625 5625 5625 5624 5623 5623 5623 5622 5621
5591 5592 5593 5595 5596 5597 5599 5601 5603 5604 5606 5608 5610 5612 5612 5613 5614 5614 5615 5615 5615 5616 5616 5615 5615 5616 5617 5618 5619 5619 5619 5619 5619 5618 5618 5617 5617 5617 5617 5616 5616 5615 5614
5582 5583 5585 5586 5587 5589 5591 5593 5594 5596 5598 5599 5600 5602 5603 5604 5605 5605 5605 5605 5605 5606 5606 5606 5606 5606 5607 5608 5609 5610 5611 5611 5611 5610 5610 5610 5610 5610 5610 5609 5609 5608 5607
5573 5574 5576 5578 5579 5581 5583 5585 5586 5587 5589 5589 5590 5592 5593 5595 5595 5596 5596 5596 5596 5597 5597 5598 5598 5598 5598 5598 5599 5600 5601 5601 5601 5601 5601 5602 5602 5602 5602 5602 5601 5601 5600
5564 5566 5568 5570 5572 5574 5576 5577 5579 5580 5580 5579 5580 5583 5585 5586 5586 5586 5587 5587 5587 5587 5588 5588 5588 5588 5589 5589 5589 5590 5591 5592 5592 5592 5592 5593 5593 5593 5593 5594 5593 5593 5593
5556 5557 5559 5562 5564 5566 5568 5569 5570 5571 5570 5569 5570 5572 5577 5579 5577 5576 5577 5577 5577 5578 5578 5578 5579 5579 5579 5581 5580 5580 5580 5582 5582 5582 5583 5583 5584 5585 5585 5585 5585 5585 5585
5546 5548 5551 5554 5556 5558 5560 5560 5561 5561 5561 5559 5559 5561 5565 5570 5569 5570 5569 5569 5568 5568 5569 5569 5569 5569 5569 5570 5571 5570 5570 5571 5571 5572 5573 5573 5574 5575 5576 5577 5577 5577 5577
5539 5540 5542 5544 5546 5548 5549 5550 5551 5551 5551 5550 5549 5550 5553 5554 5555 5559 5561 5560 5559 5558 5559 5559 5559 5559 5559 5560 5561 5561 5561 5561 5562 5562 5563 5564 5564 5565 5566 5567 5568 5568 5568
5530 5531 5532 5534 5536 5538 5539 5540 5540 5540 5540 5541 5541 5541 5541 5542 5544 5545 5549 5550 5550 5549 5548 5548 5549 5550 5550 5551 5552 5552 5552 5552 5552 5553 5553 5554 5555 5555 5556 5558 5559 5559 5558
5521 5522 5523 5524 5527 5528 5529 5530 5530 5530 5530 5530 5531 5532 5533 5535 5536 5536 5537 5539 5541 5540 5539 5539 5540 5541 5541 5542 5542 5543 5543 5543 5543 5543 5544 5544 5544 5544 5545 5547 5548 5549 5549
5513 5514 5514 5516 5517 5518 5519 5520 5520 5520 5520 5521 5522 5523 5525 5526 5526 5526 5525 5527 5529 5530 5529 5530 5531 5532 5532 5533 5534 5533 5534 5534 5534 5534 5534 5534 5534 5534 5535 5536 5538 5539 5540
5505 5506 5507 5508 5509 5509 5510 5510 5510 5511 5512 5512 5514 5514 5515 5516 5516 5516 5516 5516 5518 5521 5523 5523 5523 5523 5524 5525 5525 5525 5526 5526 5526 5525 5525 5525 5524 5525 5525 5527 5528 5530 5530
5497 5498 5498 5499 5500 5500 5501 5501 5502 5503 5503 5504 5505 5506 5507 5508 5507 5507 5507 5507 5508 5512 5516 5516 5515 5515 5515 5516 5516 5517 5518 5518 5518 5517 5517 5516 5516 5516 5517 5518 5519 5520 5521
5490 5490 5491 5492 5492 5492 5492 5492 5493 5493 5494 5495 5496 5498 5499 5499 5499 5498 5498 5499 5499 5501 5504 5507 5507 5506 5506 5507 5508 5508 5509 5509 5509 5509 5509 5508 5508 5508 5509 5510 5510 5511 5511
5482 5483 5484 5484 5484 5484 5484 5484 5484 5484 5485 5487 5488 5489 5490 5490 5490 5490 5489 5489 5489 5490 5494 5497 5497 5497 5498 5499 5500 5500 5501 5501 5502 5501 5500 5500 5499 5500 5500 5501 5502 5503 5502
5475 5475 5476 5476 5476 5476 5476 5476 5476 5476 5477 5479 5480 5481 5481 5481 5481 5480 5480 5481 5481 5482 5484 5487 5488 5488 5490 5491 5492 5492 5493 5493 5493 5492 5492 5492 5492 5492 5493 5494 5494 5494 5494
5468 5468 5468 5468 5469 5468 5468 5468 5468 5468 5469 5471 5472 5472 5473 5474 5473 5472 5472 5472 5473 5474 5475 5477 5479 5479 5481 5482 5483 5483 5483 5484 5484 5483 5483 5484 5484 5484 5485 5486 5486 5485 5485
5460 5461 5461 5462 5461 5461 5461 5461 5461 5460 5461 5462 5463 5463 5464 5465 5465 5465 5465 5465 5464 5465 5466 5468 5470 5470 5472 5472 5473 5474 5475 5475 5475 5474 5475 5475 5476 5476 5477 5477 5477 5477 5477
5453 5453 5454 5454 5454 5454 5454 5454 5453 5453 5454 5454 5454 5455 5455 5455 5456 5457 5457 5457 5457 5458 5459 5460 5461 5462 5463 5464 5464 5464 5465 5465 5465 5465 5466 5467 5468 5469 5469 5468 5468 5468 5468
5446 5446 5446 5447 5447 5447 5447 5447 5446 5446 5446 5446 5447 5446 5447 5447 5447 5447 5448 5448 5449 5451 5453 5453 5454 5455 5455 5455 5455 5455 5455 5455 5457 5456 5457 5458 5458 5460 5460 5460 5460 5459 5460
5438 5439 5439 5439 5439 5439 5439 5440 5439 5438 5438 5438 5438 5438 5439 5439 5439 5440 5439 5439 5440 5442 5444 5445 5446 5447 5447 5446 5446 5446 5446 5446 5446 5446 5447 5449 5450 5451 5452 5452 5451 5452 5452
5430 5431 5431 5430 5431 5431 5431 5432 5432 5431 5430 5430 5430 5430 5431 5431 5430 5431 5431 5432 5433 5434 5435 5436 5438 5439 5438 5437 5437 5437 5437 5436 5437 5436 5438 5441 5442 5443 5443 5444 5444 5444 5444
5422 5422 5422 5422 5422 5423 5423 5424 5423 5423 5423 5423 5422 5422 5422 5422 5422 5422 5423 5425 5426 5426 5426 5427 5428 5429 5429 5429 5428 5428 5428 5429 5430 5430 5428 5430 5432 5433 5435 5436 5436 5436 5436
5414 5414 5414 5413 5414 5414 5414 5415 5414 5415 5416 5416 5415 5414 5414 5414 5414 5414 5415 5417 5418 5418 5418 5419 5420 5421 5421 5420 5419 5420 5421 5421 5422 5422 5422 5421 5422 5422 5426 5428 5427 5428 5429